FW0788 Weather Reports


Display with metric or nautical units.
time (UTC)temp
F
wind
direction
speed
MPH
gust
MPH
rain 1hr
in
rain 24hr
in
rain mn
in
humidity
%
barometer
mb
20260509220056 40 89 0.0 0.0 0.00 0.01 0.01 94 1028.5
20260509214550 39 89 0.0 0.0 0.00 0.01 0.01 93 1028.5
20260509213048 39 89 0.0 0.0 0.00 0.01 0.01 93 1028.2
20260509211544 39 89 0.0 0.0 0.00 0.01 0.01 93 1028.0
20260509210042 39 89 0.0 0.0 0.00 0.01 0.01 92 1027.6
20260509204539 39 89 0.0 0.0 0.00 0.01 0.01 93 1027.5
20260509203036 39 89 0.0 0.0 0.01 0.01 0.01 92 1027.2
20260509201535 39 89 0.0 0.0 0.01 0.01 0.01 92 1027.0
20260509200031 39 89 0.0 0.0 0.01 0.01 0.01 92 1026.8
20260509194528 39 89 0.0 0.0 0.01 0.01 0.01 92 1026.6
20260509193033 39 89 0.0 0.0 0.00 0.00 0.00 91 1026.3
20260509191523 39 89 0.0 0.0 0.00 0.00 0.00 91 1026.0
20260509190022 40 89 0.0 0.0 0.00 0.00 0.00 92 1025.7
20260509184525 40 89 0.0 0.0 0.00 0.00 0.00 91 1025.6
20260509183017 40 89 0.0 0.0 0.00 0.00 0.00 91 1025.5
20260509181516 40 89 0.0 0.0 0.00 0.00 0.00 91 1025.4
20260509180015 40 89 0.0 0.0 0.00 0.00 0.00 91 1025.2
20260509174515 40 89 0.0 0.0 0.00 0.00 0.00 91 1025.0
20260509173011 41 89 0.0 0.0 0.00 0.00 0.00 91 1024.9
20260509171517 41 89 0.0 0.0 0.00 0.00 0.00 91 1024.7
20260509170009 41 89 0.0 0.0 0.00 0.00 0.00 90 1024.9
20260509164507 41 89 0.0 0.0 0.00 0.00 0.00 90 1024.8
20260509163008 42 89 0.0 0.0 0.00 0.00 0.00 89 1024.7
20260509161505 43 89 0.0 0.0 0.00 0.00 0.00 90 1024.7
20260509160006 43 89 0.0 0.0 0.00 0.00 0.00 90 1024.6
20260509154600 42 89 0.0 0.0 0.00 0.00 0.00 90 1024.5
20260509153058 43 89 0.0 0.0 0.00 0.00 0.00 89 1024.3
20260509151604 43 89 0.0 0.0 0.00 0.00 0.00 89 1024.2
20260509150110 43 89 0.0 0.0 0.00 0.00 0.00 88 1024.2
20260509144658 44 89 0.0 0.0 0.00 0.00 0.00 87 1024.1
20260509143050 45 89 0.0 0.0 0.00 0.00 0.00 86 1024.1
20260509141546 46 89 0.0 0.0 0.00 0.00 0.00 84 1024.0
20260509140043 47 89 0.0 0.0 0.00 0.00 0.00 83 1023.9
20260509134539 47 89 0.0 0.0 0.00 0.00 0.00 83 1023.9
20260509133037 48 89 0.0 0.0 0.00 0.00 0.00 82 1023.8
20260509131540 48 89 0.0 0.0 0.00 0.00 0.00 81 1023.7
20260509130032 48 121 0.0 0.0 0.00 0.00 0.00 84 1023.7
20260509124538 48 154 0.0 0.0 0.00 0.00 0.00 84 1023.6
20260509123030 48 155 0.0 0.0 0.00 0.00 0.00 84 1023.6
20260509121533 48 155 0.0 0.0 0.00 0.00 0.00 85 1023.6
20260509120029 48 155 0.0 0.0 0.00 0.00 0.00 84 1023.7
20260509114528 49 155 0.0 0.0 0.00 0.00 0.00 84 1023.7
20260509113026 49 150 0.0 0.0 0.00 0.00 0.00 84 1023.5
20260509111525 48 150 0.0 0.0 0.00 0.00 0.00 86 1023.3
20260509110024 48 153 0.0 0.0 0.00 0.00 0.00 88 1023.2
20260509104531 48 153 0.0 0.0 0.00 0.00 0.00 88 1023.1
20260509103021 49 153 0.0 0.0 0.00 0.00 0.00 88 1022.9
20260509101520 49 153 0.0 0.0 0.00 0.00 0.00 87 1022.6
20260509100027 50 153 0.0 0.0 0.00 0.00 0.00 86 1022.4
20260509094520 50 153 0.0 1.0 0.00 0.00 0.00 86 1022.2
20260509093013 51 153 0.0 0.0 0.00 0.00 0.00 86 1022.0
20260509091512 51 153 0.0 0.0 0.00 0.00 0.00 85 1021.8
20260509090011 52 138 0.0 0.0 0.00 0.00 0.00 84 1021.5
20260509084515 53 138 0.0 0.0 0.00 0.00 0.00 84 1021.3
20260509083010 53 138 0.0 0.0 0.00 0.00 0.00 82 1021.2
20260509081519 54 138 0.0 0.0 0.00 0.00 0.00 82 1020.8
20260509080010 55 138 0.0 0.0 0.00 0.00 0.00 79 1020.6
20260509074509 57 138 0.0 0.0 0.00 0.00 0.00 76 1020.4
20260509073008 58 138 0.0 0.0 0.00 0.00 0.00 74 1020.1
20260509071514 60 138 0.0 0.0 0.00 0.00 0.00 70 1019.9
20260509070007 62 138 0.0 0.0 0.00 0.00 0.00 65 1019.8
20260509064506 65 138 0.0 0.0 0.00 0.00 0.00 59 1019.7
20260509063006 67 138 0.0 0.0 0.00 0.00 0.00 52 1019.5
20260509061507 68 275 0.0 0.0 0.00 0.00 0.00 50 1019.5
20260509060009 69 227 0.0 0.0 0.00 0.00 0.00 54 1019.3
20260509054507 69 204 0.0 0.0 0.00 0.00 0.00 52 1019.3
20260509053008 70 188 0.0 0.0 0.00 0.00 0.00 49 1019.2
20260509051504 71 190 0.0 0.0 0.00 0.00 0.00 46 1019.2
20260509050004 71 234 0.0 0.0 0.00 0.00 0.00 46 1019.2
20260509044502 71 138 0.0 0.0 0.00 0.00 0.00 45 1019.2
20260509043003 71 155 0.0 0.0 0.00 0.00 0.00 46 1019.2
20260509041600 71 186 0.0 0.0 0.00 0.00 0.00 46 1019.2
20260509040058 70 75 0.0 0.0 0.00 0.00 0.00 52 1019.3
20260509034601 70 270 0.0 0.0 0.00 0.00 0.00 60 1019.3
20260509033050 69 271 0.0 0.0 0.00 0.00 0.00 64 1019.4
20260509031557 68 265 0.0 0.0 0.00 0.00 0.00 64 1019.6
20260509030047 67 277 0.0 0.0 0.00 0.00 0.00 65 1019.9
20260509024543 66 283 0.0 0.0 0.00 0.00 0.00 67 1020.0
20260509023052 65 288 0.0 0.0 0.00 0.00 0.00 68 1020.4
20260509021537 64 279 0.0 0.0 0.00 0.00 0.00 67 1020.5
20260509020035 64 273 0.0 0.0 0.00 0.00 0.00 65 1020.6
20260509014534 63 288 0.0 0.0 0.00 0.00 0.00 66 1020.8
20260509013041 61 267 0.0 0.0 0.00 0.00 0.00 67 1021.0
20260509011528 62 271 0.0 0.0 0.00 0.00 0.00 65 1021.2
20260509010024 61 256 0.0 0.0 0.00 0.00 0.00 66 1021.2
20260509004523 60 255 0.0 0.0 0.00 0.00 0.00 68 1021.3
20260509003018 58 202 0.0 0.0 0.00 0.00 0.00 68 1021.4
20260509001512 57 202 0.0 0.0 0.00 0.00 0.00 72 1021.4
20260509000008 55 130 0.0 0.0 0.00 0.00 0.00 75 1021.5
20260508234506 53 130 0.0 0.0 0.00 0.00 0.00 81 1021.5
20260508233059 51 130 0.0 0.0 0.00 0.00 0.00 82 1021.6
20260508231556 49 129 0.0 0.0 0.00 0.00 0.00 87 1021.7
20260508230057 47 129 0.0 0.0 0.00 0.00 0.00 95 1021.8
20260508224600 44 129 0.0 0.0 0.00 0.00 0.00 95 1021.7
20260508223041 42 129 0.0 0.0 0.00 0.00 0.00 94 1021.7
20260508221537 40 129 0.0 0.0 0.00 0.00 0.00 94 1021.4